This is the latest recevied weather packets stored in our database for station/object WX2NJ. If no packets are shown the sender has not sent any weather packets the latest 10 day(s).
| Time | Temp. | Humidity | Pressure | Rain* | Wind** | Luminosity | Snow |
|---|---|---|---|---|---|---|---|
| 1777848622 | 14.44° C | 29% | 1015.4 hPa | 0 mm | - | 23 W/m² | - |
| 1777848320 | 15° C | 30% | 1015.4 hPa | 0 mm | - | 24 W/m² | - |
| 1777848017 | 15° C | 31% | 1015.3 hPa | 0 mm | - | 26 W/m² | - |
| 1777847715 | 15° C | 28% | 1015.5 hPa | 0 mm | - | 29 W/m² | - |
| 1777847410 | 15° C | 28% | 1015.3 hPa | 0 mm | - | 34 W/m² | - |
| 1777847109 | 15° C | 29% | 1015.2 hPa | 0 mm | - | 35 W/m² | - |
| 1777846807 | 15° C | 28% | 1015.3 hPa | 0 mm | - | 34 W/m² | - |
| 1777846505 | 15° C | 27% | 1015.3 hPa | 0 mm | - | 33 W/m² | - |
| 1777846202 | 15.56° C | 27% | 1015.1 hPa | 0 mm | - | 56 W/m² | - |
| 1777845898 | 15.56° C | 29% | 1015.2 hPa | 0 mm | - | 50 W/m² | - |
| 1777845594 | 15.56° C | 26% | 1015 hPa | 0 mm | - | 53 W/m² | - |
| 1777845291 | 15.56° C | 27% | 1015.3 hPa | 0 mm | - | 70 W/m² | - |
| 1777844989 | 16.11° C | 26% | 1015.1 hPa | 0 mm | - | 103 W/m² | - |
| 1777844687 | 16.11° C | 27% | 1015.1 hPa | 0 mm | - | 110 W/m² | - |
| 1777844384 | 16.67° C | 26% | 1015.2 hPa | 0 mm | - | 152 W/m² | - |
| 1777844082 | 16.67° C | 25% | 1014.9 hPa | 0 mm | - | 257 W/m² | - |
| 1777843778 | 16.67° C | 25% | 1015.2 hPa | 0 mm | - | 223 W/m² | - |
| 1777843475 | 16.67° C | 25% | 1015 hPa | 0 mm | - | 165 W/m² | - |
| 1777843173 | 16.67° C | 26% | 1015 hPa | 0 mm | - | 209 W/m² | - |
| 1777842870 | 16.11° C | 27% | 1014.9 hPa | 0 mm | - | 82 W/m² | - |
| 1777842564 | 16.67° C | 27% | 1015 hPa | 0 mm | - | 92 W/m² | - |
| 1777842262 | 16.11° C | 27% | 1015.1 hPa | 0 mm | - | 154 W/m² | - |
| 1777841957 | 16.67° C | 25% | 1015.1 hPa | 0 mm | - | 319 W/m² | - |
| 1777841654 | 16.67° C | 26% | 1015 hPa | 0 mm | - | 399 W/m² | - |
| 1777841350 | 16.67° C | 25% | 1014.8 hPa | 0 mm | - | 412 W/m² | - |
* Rain latest hour (hover to see other rain measurements)
** Current wind speed in m/s (hover to see current wind gust speed)